Jaffrey, NH

4:35 PM EDT on June 25, 2017 (GMT -0400)
Jaffrey Airport-Silver Ranch

Weather History for KAFN - January, 2013

Change the Weather History Date:

Friday, January 25, 2013

  Actual Average Record
Temperature  
Mean Temperature 8 °F -  
Max Temperature 15 °F 26 °F 43 °F (1997)
Min Temperature 1 °F 8 °F -11 °F (2009)
Degree Days  
Heating Degree Days 57    
Moisture  
Dew Point -9 °F    
Average Humidity 45    
Maximum Humidity 84    
Minimum Humidity 29    
Precipitation  
Precipitation 0.00 in - - ()
Sea Level Pressure  
Sea Level Pressure 30.19 in    
Wind  
Wind Speed 6 mph (West)    
Max Wind Speed 14 mph    
Max Gust Speed 23 mph    
Visibility 9 miles    
Events Snow    
Averages and records for this station are not official NWS values.
T = Trace of Precipitation, MM = Missing Value Source: NWS Daily Summary

Daily Weather History Graph

Daily Weather History Graph

Search for Another Location

Airport or City:

Trip Planner

Search our weather history database for the weather conditions in past years. The results will help you decide how hot, cold, wet, or windy it might be!

Date:

Astronomy

Jan. 25, 2013 Rise Set
Actual Time 7:09 AM EST 4:52 PM EST
Civil Twilight 6:38 AM EST 5:22 PM EST
Nautical Twilight 6:04 AM EST 5:57 PM EST
Astronomical Twilight 5:30 AM EST 6:30 PM EST
Moon 3:46 PM EST 5:47 AM EST
Length of Visible Light 10h 44m
Length of Day
9h 43m
Waxing Gibbous, 98% of the Moon is Illuminated
Jan 25
Waxing Gibbous
Jan 26
Full
Feb 3
Last Quarter
Feb 10
New
Feb 17
First Quarter

Hourly Weather History & Observations

Time (EST) Temp. Windchill Dew Point Humidity Pressure Visibility Wind Dir Wind Speed Gust Speed Precip Events Conditions
12:52 AM 5.0 °F -6.9 °F -14.1 °F 41% 30.24 in 10.0 mi NNW 6.9 mph - N/A   Clear
1:52 AM 3.9 °F -8.2 °F -15.0 °F 41% 30.25 in 10.0 mi Variable 6.9 mph - N/A   Clear
2:52 AM 3.9 °F -6.9 °F -14.1 °F 43% 30.26 in 10.0 mi Variable 5.8 mph - N/A   Clear
3:52 AM 3.9 °F -5.3 °F -14.1 °F 43% 30.24 in 10.0 mi Variable 4.6 mph - N/A   Clear
4:52 AM 3.9 °F -12.2 °F -14.1 °F 43% 30.26 in 10.0 mi WSW 11.5 mph 19.6 mph N/A   Clear
5:52 AM 3.9 °F -13.7 °F -14.1 °F 43% 30.28 in 10.0 mi West 13.8 mph 23.0 mph N/A   Clear
6:52 AM 3.0 °F -13.3 °F -14.1 °F 45% 30.29 in 10.0 mi WNW 11.5 mph 20.7 mph N/A   Clear
7:52 AM 1.9 °F -13.8 °F -13.0 °F 50% 30.30 in 10.0 mi West 10.4 mph 21.9 mph N/A   Clear
8:52 AM 6.1 °F - -15.0 °F 38% 30.30 in 10.0 mi Calm Calm - N/A   Clear
9:52 AM 5.0 °F -8.1 °F -11.9 °F 46% 30.31 in 10.0 mi SSW 8.1 mph - N/A   Clear
10:52 AM 8.1 °F -3.2 °F -13.0 °F 38% 30.30 in 10.0 mi SW 6.9 mph - N/A   Clear
11:52 AM 10.9 °F -0.8 °F -11.9 °F 35% 30.27 in 10.0 mi SW 8.1 mph - N/A   Clear
12:52 PM 12.9 °F 1.6 °F -13.0 °F 31% 30.24 in 10.0 mi WNW 8.1 mph 16.1 mph N/A   Clear
1:52 PM 14.0 °F 2.9 °F -11.9 °F 31% 30.21 in 10.0 mi West 8.1 mph - N/A   Clear
2:52 PM 15.1 °F 7.7 °F -11.9 °F 29% 30.19 in 10.0 mi West 4.6 mph - N/A   Clear
3:52 PM 15.1 °F 7.7 °F -11.9 °F 29% 30.17 in 10.0 mi SW 4.6 mph - N/A   Partly Cloudy
4:52 PM 14.0 °F 8.2 °F -11.0 °F 32% 30.17 in 10.0 mi WSW 3.5 mph - N/A   Mostly Cloudy
5:52 PM 14.0 °F - -11.0 °F 32% 30.15 in 10.0 mi Calm Calm - N/A   Overcast
6:52 PM 14.0 °F - -8.0 °F 37% 30.14 in 10.0 mi Calm Calm - N/A   Overcast
7:52 PM 14.0 °F 8.2 °F -5.1 °F 43% 30.11 in 10.0 mi SSW 3.5 mph - N/A   Overcast
8:52 PM 14.0 °F - -5.1 °F 43% 30.10 in 10.0 mi Calm Calm - N/A   Overcast
9:52 PM 12.9 °F 6.9 °F -0.9 °F 54% 30.08 in 7.0 mi WNW 3.5 mph - N/A   Overcast
10:30 PM 12.2 °F - 3.2 °F 67% 29.99 in 2.5 mi Calm Calm - 0.00 in Snow Light Snow
10:52 PM 12.0 °F - 6.1 °F 77% 30.07 in 2.0 mi Calm Calm - 0.00 in Snow Light Snow
11:17 PM 12.2 °F - 6.8 °F 79% 29.99 in 1.5 mi Calm Calm - 0.00 in Snow Light Snow
11:52 PM 10.9 °F - 7.0 °F 84% 30.06 in 2.0 mi Calm Calm - 0.00 in Snow Light Snow